Stations météo

Publicité
Kinlochewe, Grande-Bretagne (99092): Température de l'air & dewpoint: 10.01.2018 08:00:00 - 16.01.2018 08:00:00 (GMT)Kinlochewe, Grande-Bretagne (99092): Température de l'air -20cm: 10.01.2018 08:00:00 - 16.01.2018 08:00:00 (GMT)Kinlochewe, Grande-Bretagne (99092): Quantités de précipitations: 10.01.2018 08:00:00 - 16.01.2018 08:00:00 (GMT)
Date & Time tt [°C] td [°C] tt -20cm [°C] rr [mm]
16.01.2018 08:00:00 - - - -
16.01.2018 07:00:00 2,2 -2,2 - 0,0
16.01.2018 06:00:00 1,8 -1,5 - 0,2
16.01.2018 05:00:00 2,7 -2,4 - 0,2
16.01.2018 04:00:00 3,1 -3,0 - 0,0
16.01.2018 03:00:00 3,2 -2,6 - 0,4
16.01.2018 02:00:00 3,2 -2,3 - 0,6
16.01.2018 01:00:00 2,3 -1,7 - 0,2
16.01.2018 00:00:00 2,3 -1,6 - 0,2
15.01.2018 23:00:00 2,4 -1,9 - 0,0
15.01.2018 22:00:00 3,2 -1,6 - 0,0
15.01.2018 21:00:00 3,0 -1,5 - 0,2
15.01.2018 20:00:00 2,6 -0,2 - 0,0
15.01.2018 19:00:00 3,0 -0,5 - 0,0
15.01.2018 18:00:00 2,6 0,3 - 0,4
15.01.2018 17:00:00 2,7 -0,3 - 0,0
15.01.2018 16:00:00 3,5 0,3 - 0,0
15.01.2018 15:00:00 3,0 1,1 - 1,0
15.01.2018 14:00:00 3,3 1,9 - 0,8
15.01.2018 13:00:00 4,5 1,2 - 0,2
15.01.2018 12:00:00 3,2 1,9 - 1,4
15.01.2018 11:00:00 4,7 2,1 - 0,0
15.01.2018 10:00:00 3,9 1,9 - 0,2
15.01.2018 09:00:00 4,7 1,2 3,7 0,0
15.01.2018 08:00:00 5,4 0,9 - 0,2
15.01.2018 07:00:00 5,7 1,6 - 0,0
15.01.2018 06:00:00 5,5 1,9 - 0,0
15.01.2018 05:00:00 5,7 1,8 - 0,0
15.01.2018 04:00:00 6,1 2,6 - 0,2
15.01.2018 03:00:00 6,9 3,1 - 0,0
15.01.2018 02:00:00 7,2 3,7 - 0,2
15.01.2018 01:00:00 7,4 5,2 - 0,2
15.01.2018 00:00:00 7,6 5,7 - 1,8
14.01.2018 23:00:00 8,3 6,2 - 3,8
14.01.2018 22:00:00 8,4 6,7 - 2,8
14.01.2018 21:00:00 8,4 6,5 - 1,0
14.01.2018 20:00:00 8,1 5,9 - 0,6
14.01.2018 19:00:00 8,4 5,3 - 0,4
14.01.2018 18:00:00 7,7 4,7 - 0,4
14.01.2018 17:00:00 6,6 4,2 - 1,6
14.01.2018 16:00:00 5,8 3,7 - 2,0
14.01.2018 15:00:00 6,6 3,2 - 0,8
14.01.2018 14:00:00 8,9 1,2 - 0,0
14.01.2018 13:00:00 9,0 2,6 - 0,0
14.01.2018 12:00:00 8,8 2,3 - 0,0
14.01.2018 11:00:00 8,7 2,5 - 0,0
14.01.2018 10:00:00 8,4 2,2 - 0,0
14.01.2018 09:00:00 8,4 1,2 3,0 0,0
14.01.2018 08:00:00 7,9 2,0 - 0,0
14.01.2018 07:00:00 7,1 2,4 - 0,0
14.01.2018 06:00:00 7,3 3,6 - 0,0
14.01.2018 05:00:00 7,0 4,8 - 0,0
14.01.2018 04:00:00 6,4 4,7 - 0,2
14.01.2018 03:00:00 7,3 4,5 - 0,2
14.01.2018 02:00:00 7,1 4,1 - 0,0
14.01.2018 01:00:00 7,0 4,3 - 0,0
14.01.2018 00:00:00 6,7 3,9 - 0,0
13.01.2018 23:00:00 6,4 3,5 - 0,0
13.01.2018 22:00:00 6,4 3,9 - 0,0
13.01.2018 21:00:00 6,9 2,1 - 0,0
13.01.2018 20:00:00 6,9 2,3 - 0,0
13.01.2018 19:00:00 6,6 1,8 - 0,0
13.01.2018 18:00:00 6,9 1,9 - 0,0
13.01.2018 17:00:00 6,5 1,7 - 0,0
13.01.2018 16:00:00 6,6 1,6 - 0,0
13.01.2018 15:00:00 6,7 1,0 - 0,0
13.01.2018 14:00:00 6,9 0,7 - 0,0
13.01.2018 13:00:00 6,8 0,8 - 0,0
13.01.2018 12:00:00 6,6 1,1 - 0,0
13.01.2018 11:00:00 6,5 1,0 - 0,0
13.01.2018 10:00:00 6,5 0,8 - 0,0
13.01.2018 09:00:00 6,2 0,8 2,4 0,0
13.01.2018 08:00:00 6,2 0,8 - 0,0
13.01.2018 07:00:00 6,4 0,7 - 0,0
13.01.2018 06:00:00 6,4 0,5 - 0,0
13.01.2018 05:00:00 6,6 0,3 - 0,0
13.01.2018 04:00:00 6,4 -0,1 - 0,0
13.01.2018 03:00:00 6,5 -0,5 - 0,0
13.01.2018 02:00:00 6,8 -1,0 - 0,0
13.01.2018 01:00:00 6,4 -0,7 - 0,0
13.01.2018 00:00:00 7,1 -1,2 - 0,0
12.01.2018 23:00:00 7,6 -1,3 - 0,0
12.01.2018 22:00:00 6,9 -0,8 - 0,0
12.01.2018 21:00:00 6,8 -0,6 - 0,0
12.01.2018 20:00:00 7,2 -1,0 - 0,0
12.01.2018 19:00:00 7,0 -0,6 - 0,0
12.01.2018 18:00:00 6,8 0,0 - 0,0
12.01.2018 17:00:00 6,8 -0,1 - 0,0
12.01.2018 16:00:00 6,5 0,5 - 0,0
12.01.2018 15:00:00 7,1 1,0 - 0,0
12.01.2018 14:00:00 7,8 1,0 - 0,0
12.01.2018 13:00:00 - - - 0,0
12.01.2018 12:00:00 7,2 1,2 - 0,0
12.01.2018 11:00:00 6,1 1,2 - 0,2
12.01.2018 10:00:00 2,6 0,8 - 0,0
12.01.2018 09:00:00 -1,1 -1,4 2,4 0,0
12.01.2018 08:00:00 -1,7 -2,7 - 0,0
12.01.2018 07:00:00 -1,4 -2,1 - 0,0
12.01.2018 06:00:00 -3,4 -3,9 - 0,0
12.01.2018 05:00:00 -3,3 -4,2 - 0,0
12.01.2018 04:00:00 -2,0 -2,7 - 0,0
12.01.2018 03:00:00 -2,0 -3,0 - 0,0
12.01.2018 02:00:00 -2,1 -2,8 - 0,0
12.01.2018 01:00:00 -2,2 -2,7 - 0,0
12.01.2018 00:00:00 -1,9 -2,7 - 0,0
11.01.2018 23:00:00 -2,6 -3,3 - 0,0
11.01.2018 22:00:00 -1,8 -2,6 - 0,0
11.01.2018 21:00:00 -0,7 -1,7 - 0,0
11.01.2018 20:00:00 -1,7 -2,6 - 0,0
11.01.2018 19:00:00 -1,6 -2,8 - 0,0
11.01.2018 18:00:00 -0,7 -1,3 - 0,0
11.01.2018 17:00:00 -0,7 -1,7 - 0,0
11.01.2018 16:00:00 0,4 -0,9 - 0,0
11.01.2018 15:00:00 2,0 -0,2 - 0,0
11.01.2018 14:00:00 3,8 0,6 - 0,2
11.01.2018 13:00:00 3,1 0,8 - 0,0
11.01.2018 12:00:00 1,5 -0,3 - 0,0
11.01.2018 11:00:00 -0,1 -1,3 - 0,0
11.01.2018 10:00:00 -1,6 -2,4 - 0,0
11.01.2018 09:00:00 -2,5 -3,1 2,7 0,0
11.01.2018 08:00:00 -2,4 -2,8 - 0,0
11.01.2018 07:00:00 -2,4 -2,9 - 0,0
11.01.2018 06:00:00 -2,5 -2,9 - 0,0
11.01.2018 05:00:00 -2,3 -2,7 - 0,0
11.01.2018 04:00:00 - - - 0,0
11.01.2018 03:00:00 -2,9 -3,3 - 0,0
11.01.2018 02:00:00 -3,0 -3,4 - 0,0
11.01.2018 01:00:00 -2,1 -2,3 - 0,0
11.01.2018 00:00:00 -2,2 -2,5 - 0,0
10.01.2018 23:00:00 -2,3 -2,5 - 0,0
10.01.2018 22:00:00 -1,9 -2,2 - 0,0
10.01.2018 21:00:00 -0,9 -1,1 - 0,0
10.01.2018 20:00:00 -1,9 -2,2 - -
10.01.2018 19:00:00 -1,4 -1,9 - 0,0
10.01.2018 18:00:00 -0,4 -0,9 - 0,0
10.01.2018 17:00:00 0,4 -0,4 - -
10.01.2018 16:00:00 2,4 1,0 - 0,0
10.01.2018 15:00:00 5,8 3,2 - 0,0
10.01.2018 14:00:00 6,3 3,9 - 0,0
10.01.2018 13:00:00 6,8 4,0 - 0,0
10.01.2018 12:00:00 7,9 4,1 - 0,0
10.01.2018 11:00:00 6,0 3,8 - 0,0
10.01.2018 10:00:00 4,5 3,1 - 0,0
10.01.2018 09:00:00 5,1 3,4 2,7 0,0
10.01.2018 08:00:00 6,5 3,8 - 0,0

tt = Température de l'air
td = dewpoint
tt -20cm = Température de l'air -20cm
rr = Quantités de précipitations

stations d'obs. à proximité